Welcome to the New NWS' Forecast!
Most changes are behind the scenes, but click here for differences you might notice.

Regional Weather Roundup (RWR)

Issued by National Weather Service (NWS)

                            
000
ASUS42 KTBW 151216
RWRFL 
FLORIDA REGIONAL WEATHER ROUNDUP
NATIONAL WEATHER SERVICE TAMPA BAY RUSKIN FL
700 AM EST THU NOV 15 2018

NOTE: "FAIR" INDICATES FEW OR NO CLOUDS BELOW 12,000 FEET WITH NO
SIGNIFICANT WEATHER AND/OR OBSTRUCTIONS TO VISIBILITY.

FLZ001>010-012>015-112-114-115-151300-
PANHANDLE FLORIDA
  
CITY           SKY/WX    TMP DP  RH WIND       PRES   REMARKS
PENSACOLA      MOCLDY    36  31  82 NW15G24   30.20R WCI  27          
MILTON NAS     CLOUDY    34  34 100 NW10      30.20R WCI  26          
CRESTVIEW      CLOUDY    36  34  92 N6        30.19S WCI  31          
DUKE FIELD     CLOUDY    37  37  99 NW12      30.17R WCI  29          
VALPARAISO     CLOUDY    38  36  93 N10       30.17R WCI  30          
MARY ESTHER    CLOUDY    37  35  89 N15       30.17S WCI  28          
PANAMA CITY    CLOUDY    42  39  89 NW14      30.14R WCI  35          
TYNDALL AFB    CLOUDY    45  43  93 NW12      30.17R WCI  39          
APALACHICOLA   CLOUDY    47  45  93 NW10      30.11R WCI  42          

STATION/POSITION SKY/WX   TEMP    WIND        PRES    WAVE   SWELL
                          AIR SEA DIR/SP/G            HT/PER HT/PER
                          (F)     (DEG/KT/KT) (MB)    (FT/S) (FT/S)
30.1N   87.6W                                 1023.2R   3/ 4
29.2N   88.2W                 77  320/ 21/ 27 1023.8R   7/ 6
PANAMA CITY BEAC NOT AVBL
TOWER C                    54     320/ 20/ 22 1018.7R

$$
FLZ011-016>038-118-127-128-134-139-239-151300-
NORTH FLORIDA
  
CITY           SKY/WX    TMP DP  RH WIND       PRES   REMARKS
MARIANNA       CLOUDY    54  43  66 NW12      30.12R                  
TALLAHASSEE    CLOUDY    48  47  96 NW12      30.08R WCI  43          
PERRY          DRIZZLE   56  55  97 NW3       30.06R                  
LIVE OAK       CLOUDY    52  52 100 CALM      30.03R                  
CROSS CITY     CLOUDY    56  56  97 N3        30.01F                  
LAKE CITY      CLOUDY    50  50 100 E5        30.01F                  
GAINESVILLE    CLOUDY    54  52  93 NE7       30.04F                  
WILLISTON        N/A    N/A N/A N/A MISG        N/A                   
MAYPORT NAS    CLOUDY    54  54 100 NW13G21   30.01R                  
JACKSONVILLE   CLOUDY    51  48  89 NW8       30.01F                  
JAX NAS        CLOUDY    54  53  97 N14       30.02F                  
JAX CECIL      CLOUDY    54  52  94 N7        30.01F                  
FERNANDINA BEA CLOUDY    50  48  93 NW15G23   30.01F WCI  44          
ST AUGUSTINE   CLOUDY    56  55  97 NW14      30.01R FOG              
PALM COAST     CLOUDY    59  57  94 W12G20    30.00R FOG              

STATION/POSITION SKY/WX   TEMP    WIND        PRES    WAVE   SWELL
                          AIR SEA DIR/SP/G            HT/PER HT/PER
                          (F)     (DEG/KT/KT) (MB)    (FT/S) (FT/S)
SHELL POINT      NOT AVBL
KEATON BEACH               56     320/  5/ 11 1017.8R
CEDAR KEY                  59     320/  2/  2 1016.7S
FERNANDINA                    70  320/  9/ 13 1017.4R
30.7N   81.3W                 71                N/A     6/12   2/12
MAYPORT                    52 72  320/  8/ 12 1016.6R
31.4N   80.9W              54 71  110/ 10/ 19 1014.7R   7/ 8   5/ 8
ST AUGUSTINE               58 72  320/ 10/ 12 1015.8R

$$
FLZ040-043>046-052-053-057-058-063-144-151300-
INTERIOR CENTRAL FLORIDA
  
CITY           SKY/WX    TMP DP  RH WIND       PRES   REMARKS
OCALA          MOCLDY    57  55  93 NE3       30.02F                  
LEESBURG       CLOUDY    59  57  93 NW9       30.02S                  
SANFORD        CLOUDY    63  62  97 W13G22    30.00R                  
ORLANDO EXEC   CLOUDY    63  61  93 NW7       30.01R                  
ORLANDO INTL   CLOUDY    63  62  97 NW10      30.01R                  
KISSIMMEE      CLOUDY    64  61  90 NW16G22   30.01R                  
WINTER HAVEN   FAIR      64  61  90 NW8       30.03R                  
LAKELAND       PTCLDY    61  61 100 NW8       30.02R                  
BARTOW         FAIR      63  63 100 NW6G12    30.01S                  
SEBRING        CLOUDY    70  66  89 NW15G23   30.00R                  
OKEECHOBEE     MOCLDY    73  72  94 CALM      29.96R                  

$$
FLZ041-047-054-059-064-141-147-151300-
EAST CENTRAL FLORIDA
  
CITY           SKY/WX    TMP DP  RH WIND       PRES   REMARKS
ORMOND BEACH   CLOUDY    59  59 100 W13       29.99  FOG              
DAYTONA BEACH  CLOUDY    62  62 100 W13       29.99R                  
DELAND         CLOUDY    61  59  94 NW12      30.00R                  
NEW SMYRNA BEA CLOUDY    64  63  94 W9        29.99                   
JFK SPACE CTR  LGT RAIN  75  73  94 W17       29.96R                  
TITUSVILLE     MOCLDY   N/A N/A N/A SW8       29.97  FOG              
CAPE CANAVERAL FAIR      76  74  93 SW9       29.94R                  
PATRICK AFB    MOCLDY    76  76 100 SW10      29.95S                  
MELBOURNE      CLOUDY    76  74  93 SW7       29.96R                  
VERO BEACH     MOCLDY    73  73 100 CALM      29.96R                  
FT PIERCE      FAIR      71  69  93 CALM      29.96R                  
STUART         MOCLDY    73  72  94 CALM      29.97R                  

STATION/POSITION SKY/WX   TEMP    WIND        PRES    WAVE   SWELL
                          AIR SEA DIR/SP/G            HT/PER HT/PER
                          (F)     (DEG/KT/KT) (MB)    (FT/S) (FT/S)
28.5N   80.2W              80     210/ 16/ 19 1014.4R   6/ 9   5/ 9
28.9N   78.5W              81 82  160/ 19/ 25 1014.9F
TRIDENT PIER               76 80  200/ 10/ 11 1015.5R
28.4N   80.5W                 79                N/A     3/ 9   2/11
27.5N   80.2W                 80                N/A     3/ 9

$$
FLZ050-056-061-142-242-148-248-149-249-151-251-155-255-
160-260-151300-
WEST CENTRAL FLORIDA
  
CITY           SKY/WX    TMP DP  RH WIND       PRES   REMARKS
CRYSTAL RIVER  FAIR      57  55  94 CALM      30.02S                  
BROOKSVILLE    MOCLDY    60  58  92 CALM      30.02F                  
CLEARWATER AIR FAIR      64  61  88 N5        30.01F                  
ST PETE CLEARW NOT AVBL                                               
TAMPA INTL     NOT AVBL                                               
TAMPA EXEC     CLOUDY    63  61  94 CALM      30.03R                  
PLANT CITY     CLOUDY    64  61  88 N6        30.04S                  
MACDILL AFB    CLOUDY    66  62  87 N7        30.02S                  
PETER O KNIGHT CLOUDY   N/A N/A N/A N7        30.03R                  
ST PETERSBURG  CLOUDY    68  63  84 N8        29.99S                  
SARASOTA       CLOUDY    69  64  84 N7        30.00S                  
VENICE         FAIR      70  64  83 N13       30.02S                  

STATION/POSITION SKY/WX   TEMP    WIND        PRES    WAVE   SWELL
                          AIR SEA DIR/SP/G            HT/PER HT/PER
                          (F)     (DEG/KT/KT) (MB)    (FT/S) (FT/S)
CLEARWATER BEACH                  350/ 14/ 18 1016.4F
MIDDLE TAMPA BAY           69     360/ 14/ 17 1016.6S
VENICE                     69 79  360/ 11/ 13 1016.5R

$$
FLZ066-069-070-075>078-162-262-165-265-151300-
SOUTHWEST FLORIDA AND KEYS
  
CITY           SKY/WX    TMP DP  RH WIND       PRES   REMARKS
PUNTA GORDA    CLOUDY    68  64  87 N18G26    30.02R                  
FT MYERS       LGT RAIN  70  68  93 N14       30.00R                  
SOUTHWEST INTL LGT RAIN  69  67  93 N13       30.00R                  
NAPLES         RAIN      72  70  93 N13G21    29.98R FOG              
MARCO ISLAND   LGT RAIN  73  72  94 NW10      29.98S                  
IMMOKALEE      CLOUDY    72  70  94 NW8G16    29.99R                  
MARATHON       FAIR      80  73  79 S5        29.96R                  
KEY WEST INTL  MOCLDY    77  74  90 NW6       29.98S                  

STATION/POSITION SKY/WX   TEMP    WIND        PRES    WAVE   SWELL
                          AIR SEA DIR/SP/G            HT/PER HT/PER
                          (F)     (DEG/KT/KT) (MB)    (FT/S) (FT/S)
NAPLES                     74 80              1015.5R
26.0N   85.6W              68 81  330/ 19/ 25 1018.2R   7/ 9   5/ 9
DRY TORTUGAS               76     360/ 26/ 29 1015.9R
SAND KEY                   76                 1015.3R
SOMBRERO KEY               81     160/  9/ 11 1013.9R
LONG KEY                   81 82  200/  7/  8 1014.2R
MOLASSES REEF              81 81  120/  5/  6 1015.0R

$$
FLZ067-068-071>074-168-172>174-151300-
SOUTHEAST FLORIDA 
  
CITY           SKY/WX    TMP DP  RH WIND       PRES   REMARKS
W PALM BEACH   FAIR      77  74  90 S5        29.97R                  
FT LAUDER-EXEC FAIR      76  76 100 CALM      29.96S                  
FT LAUDERDALE  FAIR      79  77  94 S5        29.95S                  
POMPANO BEACH  FAIR      80  74  81 S6        29.96S                  
PEMBROKE PINES MOCLDY    78  75  90 N3        29.97S                  
OPA LOCKA      FAIR      78  76  93 CALM      29.97R                  
MIAMI          MOCLDY    77  76  96 SE3       29.96F                  
WEST KENDALL   FAIR      75  74  96 CALM      29.96S                  
HOMESTEAD      FAIR      75  74  97 CALM      29.96R                  

STATION/POSITION SKY/WX   TEMP    WIND        PRES    WAVE   SWELL
                          AIR SEA DIR/SP/G            HT/PER HT/PER
                          (F)     (DEG/KT/KT) (MB)    (FT/S) (FT/S)
PORT EVERGLADES            81     150/  9/ 12 1014.5
VIRGINIA KEY               81 83  140/  6/  9 1014.3S
LAKE WORTH                 80 81  180/ 11/ 13 1015.8R
FOWEY ROCKS                81 81  150/ 13/ 14 1015.2R
SETTLEMENT POINT           80     170/  8/ 11 1015.1R

$$